Weather History for Wittering, United Kingdom

Change the Weather History Date:

Wednesday, January 16, 2013

  Actual Average Record
Temperature  
Mean Temperature 22 °F -  
Max Temperature 25 °F 43 °F 53 °F (2011)
Min Temperature 19 °F 34 °F 19 °F (2013)
Degree Days  
Heating Degree Days 43    
Moisture  
Dew Point 22 °F    
Average Humidity 95    
Maximum Humidity 100    
Minimum Humidity 90    
Precipitation  
Precipitation 0.00 in - - ()
Sea Level Pressure  
Sea Level Pressure 29.93 in    
Wind  
Wind Speed 3 mph ()    
Max Wind Speed 7 mph    
Max Gust Speed -    
Visibility 0.8 miles    
Events Fog , Snow    
Averages and records for this station are not official NWS values.
T = Trace of Precipitation, MM = Missing Value Source: Averaged Metar Reports

Daily Weather History Graph

Daily Weather History Graph

Search for Another Location

Airport:

Trip Planner

Search our weather history database for the weather conditions in past years. The results will help you decide how hot, cold, wet, or windy it might be!

Date:

Astronomy

Jan. 16, 2013 Rise Set
Actual Time 8:04 AM GMT 4:19 PM GMT
Civil Twilight 7:25 AM GMT 4:58 PM GMT
Nautical Twilight 6:42 AM GMT 5:41 PM GMT
Astronomical Twilight 6:01 AM GMT 6:22 PM GMT
Moon 9:45 AM GMT (1/16) 10:48 PM GMT (1/16)
Length of Visible Light 9h 33m
Length of Day
8h 14m
Waxing Crescent, 26% of the Moon is Illuminated
Jan 16
Waxing Crescent
Jan 18
First Quarter
Jan 27
Full
Feb 3
Last Quarter
Feb 10
New

Hourly Weather History & Observations

Time (GMT) Temp. Windchill Dew Point Humidity Pressure Visibility Wind Dir Wind Speed Gust Speed Precip Events Conditions
12:50 AM 23.0 °F 15.8 °F 21.2 °F 93% 29.86 in - North 5.8 mph - N/A   Mist
1:50 AM 21.2 °F 12.6 °F 19.4 °F 93% 29.83 in - North 6.9 mph - N/A   Partly Cloudy
2:50 AM 22 °F - 21 °F 96% 29.88 in 0 mi North 3.5 mph - -   Ice Crystals
2:50 AM 23.0 °F 18.4 °F 21.2 °F 93% 29.86 in 0.0 mi North 3.5 mph - N/A   Ice Crystals
3:50 AM 24.8 °F - 24.8 °F 100% 29.83 in 0.1 mi ENE 1.2 mph - N/A Fog Fog
4:50 AM 24.8 °F - 24.8 °F 100% 29.83 in 0.1 mi East 2.3 mph - N/A Fog Fog
5:50 AM 25 °F - 25 °F 98% 29.88 in 0 mi ENE 4.6 mph - - Snow Snow Grains
5:50 AM 24.8 °F 19.1 °F 24.8 °F 100% 29.86 in 0.1 mi ENE 4.6 mph - N/A Snow Snow Grains
6:50 AM 23.0 °F 17.0 °F 23.0 °F 100% 29.86 in 0.1 mi ESE 4.6 mph - N/A Snow Snow Grains
7:50 AM 24.8 °F 20.5 °F 24.8 °F 100% 29.86 in 0.1 mi SE 3.5 mph - N/A Snow Snow Grains
8:50 AM 25 °F - 25 °F 98% 29.92 in 0 mi SSW 2.3 mph - - Fog Fog
8:50 AM 24.8 °F - 24.8 °F 100% 29.89 in 0.1 mi SSW 2.3 mph - N/A Fog Fog
9:50 AM 24.8 °F - 24.8 °F 100% 29.89 in 0.1 mi WSW 2.3 mph - N/A Fog Fog
10:50 AM 24.8 °F - 24.8 °F 100% 29.89 in 0.2 mi SW 1.2 mph - N/A Fog Fog
11:50 AM 25 °F - 24 °F 95% 29.94 in 0 mi West 3.5 mph - - Fog Fog
11:50 AM 24.8 °F 20.5 °F 24.8 °F 100% 29.92 in 0.2 mi West 3.5 mph - N/A Fog Light Freezing Fog
12:50 PM 24.8 °F 20.5 °F 23.0 °F 93% 29.92 in 0.1 mi WNW 3.5 mph - N/A Fog Light Freezing Fog
1:50 PM 24.8 °F 20.5 °F 23.0 °F 93% 29.92 in 0.1 mi WNW 3.5 mph - N/A Fog Fog
2:50 PM 25 °F - 24 °F 96% 29.97 in 0 mi Calm Calm - - Fog Fog
2:50 PM 24.8 °F - 24.8 °F 100% 29.95 in 0.2 mi Calm Calm - N/A Fog Fog
3:50 PM 23.0 °F - 21.2 °F 93% 29.95 in 0.1 mi Calm Calm - N/A Fog Fog
4:50 PM 21.2 °F - 19.4 °F 93% 29.95 in 0.1 mi Calm Calm - N/A Fog Patches of Fog
5:50 PM 19 °F - 17 °F 91% 30.01 in 0 mi Calm Calm - - Fog Fog
5:50 PM 19.4 °F - 17.6 °F 93% 29.98 in - Calm Calm - N/A Fog Fog
6:50 PM 21.2 °F - 19.4 °F 93% 29.98 in 1.6 mi Calm Calm - N/A   Mostly Cloudy
7:50 PM 21.2 °F - 19.4 °F 93% 29.98 in 4.3 mi Calm Calm - N/A   Mostly Cloudy
8:50 PM 21 °F - 19 °F 90% 30.03 in 0 mi Calm Calm - - Fog Fog
8:50 PM 21.2 °F - 19.4 °F 93% 30.01 in 0.2 mi Calm Calm - N/A Fog Fog
9:50 PM 19.4 °F - 17.6 °F 93% 30.01 in 3.7 mi Calm Calm - N/A   Mostly Cloudy
10:50 PM 19.4 °F - 17.6 °F 93% 30.01 in 3.1 mi Calm Calm - N/A   Haze
11:50 PM 20 °F - 18 °F 90% 30.05 in 4 mi Calm Calm - -   Light Haze
11:50 PM 19.4 °F - 17.6 °F 93% 30.01 in 3.7 mi Calm Calm - N/A   Haze